This demonstration page uses our WeatherBlox Daily Observations layout. Learn more.

Left ArrowRight Arrow

38.80484, -77.04692

Hourly Observations for December 30, 2021

Temp ( °F °C ) Dew Point ( °F °C ) Humidity (%) Winds ( mph kmh ) Pressure ( in mb ) Visibility ( mi km ) Precip ( " mm )
12:52 am 00:52 Cloudy with Light Rain 48 8.9 45 7.2 89 89 E 8 13 29.93 1014 4 6 0.02 0.51
1:36 am 01:36 Cloudy with Rain 49 9.4 46 7.8 90 90 N 5 7 29.95 1014 3 4 0.05 1.27
1:52 am 01:52 Cloudy with Light Rain 47 8.3 45 7.2 93 93 E 6 9 29.92 1013 2 3 0.08 2.03
2:01 am 02:01 Cloudy with Light Rain 48 8.9 45 7.2 89 89 ENE 6 9 29.93 1014 3 4 0.01 0.25
2:09 am 02:09 Cloudy with Light Rain 48 8.9 45 7.2 89 89 E 9 15 29.91 1013 4 6 0.01 0.25
2:52 am 02:52 Cloudy with Light Rain 48 8.9 45 7.2 89 89 NNE 6 9 29.91 1013 4 6 0.02 0.51
3:52 am 03:52 Cloudy with Mist and Fog 47 8.3 45 7.2 93 93 ENE 6 9 29.88 1012 4 6 0.01 0.25
4:05 am 04:05 Cloudy with Light Rain 48 8.9 45 7.2 89 89 NNE 5 7 29.89 1012 4 6 0.00 0.00
4:16 am 04:16 Cloudy with Light Rain 48 8.9 46 7.8 93 93 NE 3 6 29.90 1013 4 6 0.00 0.00
4:52 am 04:52 Cloudy with Light Rain 48 8.9 46 7.8 93 93 Calm 29.90 1013 3 5 0.01 0.25
5:52 am 05:52 Cloudy with Mist and Fog 49 9.4 46 7.8 90 90 Calm 29.91 1013 5 8 0.00 0.00
6:42 am 06:42 Cloudy with Light Rain 48 8.9 46 7.8 93 93 NNE 3 6 29.93 1014 3 4 0.00 0.00
6:52 am 06:52 Cloudy with Drizzle 48 8.9 46 7.8 93 93 NNE 3 6 29.93 1014 3 5 0.00 0.00
7:52 am 07:52 Cloudy with Drizzle 48 8.9 46 7.8 93 93 Calm 29.94 1014 3 4 0.01 0.25
8:30 am 08:30 Cloudy with Drizzle 49 9.4 46 7.8 90 90 NE 5 7 29.94 1014 3 5 0.00 0.00
8:52 am 08:52 Cloudy with Drizzle 49 9.4 47 8.3 93 93 Calm 29.96 1014 3 5 0.00 0.00
9:52 am 09:52 Cloudy with Mist and Fog 50 10 47 8.3 89 89 Calm 29.96 1015 4 6 0.00 0.00
10:52 am 10:52 Cloudy with Mist and Fog 51 10.6 48 8.9 89 89 E 3 6 29.96 1015 5 8 0.00 0.00
11:52 am 11:52 Cloudy with Mist and Fog 52 11.1 48 8.9 86 86 NE 3 6 29.94 1014 6 10 0.00 0.00
12:52 pm 12:52 Cloudy 53 11.7 49 9.4 86 86 Calm 29.91 1013 7 11 0.00 0.00
1:52 pm 13:52 Cloudy 53 11.7 48 8.9 83 83 SSW 5 7 29.91 1013 9 14 0.00 0.00
2:52 pm 14:52 Cloudy 54 12.2 49 9.4 83 83 S 5 7 29.91 1013 9 14 0.00 0.00
3:52 pm 15:52 Cloudy 54 12.2 49 9.4 83 83 S 3 6 29.91 1013 10 16 0.00 0.00
4:52 pm 16:52 Cloudy 53 11.7 48 8.9 83 83 S 5 7 29.91 1013 10 16 0.00 0.00
5:24 pm 17:24 Cloudy 53 11.7 48 8.9 83 83 S 5 7 29.91 1013 10 16 0.00 0.00
5:52 pm 17:52 Cloudy 54 12.2 49 9.4 83 83 SSW 6 9 29.92 1013 8 13 0.00 0.00
6:02 pm 18:02 Cloudy with Drizzle 53 11.7 50 10 89 89 SSW 6 9 29.92 1013 5 8 0.00 0.00
6:05 pm 18:05 Cloudy with Drizzle 53 11.7 50 10 89 89 SSW 6 9 29.92 1013 4 6 0.00 0.00
6:23 pm 18:23 Cloudy with Drizzle 53 11.7 50 10 89 89 VRB 3 6 29.93 1014 3 4 0.00 0.00
6:29 pm 18:29 Cloudy with Drizzle 51 10.6 49 9.4 92 92 Calm 29.93 1014 2 3 0.00 0.00
6:41 pm 18:41 Cloudy with Drizzle 52 11.1 50 10 93 93 SSW 5 7 29.93 1014 2 3 0.00 0.00
6:52 pm 18:52 Cloudy with Drizzle 51 10.6 49 9.4 92 92 S 6 9 29.93 1014 2 3 0.00 0.00
7:01 pm 19:01 Cloudy with Drizzle 52 11.1 50 10 93 93 S 7 11 29.94 1014 2 3 0.00 0.00
7:10 pm 19:10 Cloudy with Drizzle 52 11.1 50 10 93 93 S 6 9 29.94 1014 3 4 0.00 0.00
7:22 pm 19:22 Cloudy with Drizzle 52 11.1 50 10 93 93 S 5 7 29.94 1014 3 5 0.00 0.00
7:33 pm 19:33 Cloudy with Drizzle 51 10.6 49 9.4 92 92 S 6 9 29.94 1014 3 4 0.00 0.00
7:40 pm 19:40 Cloudy with Drizzle 51 10.6 49 9.4 92 92 S 5 7 29.94 1014 2 3 0.00 0.00
7:43 pm 19:43 Cloudy with Drizzle 51 10.6 49 9.4 92 92 S 3 6 29.94 1014 2 3 0.00 0.00
7:47 pm 19:47 Cloudy with Drizzle 52 11 48 9 88 88 S 3 6 29.94 1014 3 4 0.00 0.00
7:52 pm 19:52 Cloudy with Drizzle 51 10.6 49 9.4 92 92 S 3 6 29.94 1014 2 2 0.00 0.00
7:58 pm 19:58 Cloudy with Drizzle 51 10.6 49 9.4 92 92 S 5 7 29.94 1014 1 2 0.00 0.00
8:05 pm 20:05 Cloudy with Drizzle 51 10.6 49 9.4 92 92 S 6 9 29.94 1014 2 3 0.00 0.00
8:12 pm 20:12 Cloudy with Drizzle 51 10.6 49 9.4 92 92 S 5 7 29.94 1014 3 5 0.00 0.00
8:29 pm 20:29 Cloudy with Mist and Fog 51 10.6 49 9.4 92 92 SSE 5 7 29.94 1014 4 6 0.00 0.00
8:39 pm 20:39 Cloudy with Mist and Fog 51 10.6 49 9.4 92 92 S 6 9 29.94 1014 4 6 0.00 0.00
8:52 pm 20:52 Cloudy with Mist and Fog 51 10.6 49 9.4 92 92 S 5 7 29.94 1014 5 8 0.00 0.00
9:52 pm 21:52 Cloudy with Mist and Fog 51 10.6 48 8.9 89 89 S 5 7 29.95 1014 4 6 0.00 0.00
10:52 pm 22:52 Cloudy with Drizzle 51 10.6 49 9.4 92 92 S 5 7 29.94 1014 4 6 0.00 0.00
11:15 pm 23:15 Cloudy with Drizzle 51 10.6 49 9.4 92 92 S 3 6 29.94 1014 3 5 0.00 0.00
11:52 pm 23:52 Cloudy with Mist and Fog 51 10.6 49 9.4 92 92 Calm 29.93 1013 4 6 0.00 0.00
11:59 pm 23:59 Cloudy with Mist and Fog 51 10.6 50 10 96 96 Calm 29.93 1014 4 6 0.00 0.00

Powered by AerisWeather